This is the latest recevied weather packets stored in our database for station/object W8CEN. If no packets are shown the sender has not sent any weather packets the latest 1 day(s).
| Time | Temp. | Humidity | Pressure | Rain* | Wind** | Luminosity | Snow |
|---|---|---|---|---|---|---|---|
| 1778022262 | 10° C | 94% | 987 hPa | 0 mm | 0 m/s | 24 W/m² | - |
| 1778021948 | 10.56° C | 94% | 987 hPa | 0 mm | 0 m/s | 24 W/m² | - |
| 1778021645 | 10.56° C | 94% | 987 hPa | 0 mm | 0 m/s | 24 W/m² | - |
| 1778021340 | 10.56° C | 94% | 986.8 hPa | 0 mm | 0 m/s | 34 W/m² | - |
| 1778021038 | 10° C | 94% | 987 hPa | 0 mm | 0 m/s | 43 W/m² | - |
| 1778020735 | 10° C | 94% | 987 hPa | 0 mm | 0 m/s | 46 W/m² | - |
| 1778020432 | 10° C | 93% | 987 hPa | 0 mm | 0 m/s | 42 W/m² | - |
| 1778020127 | 10° C | 93% | 987.3 hPa | 1.27 mm | 0 m/s | 42 W/m² | - |
| 1778019824 | 10° C | 93% | 987.2 hPa | 1.27 mm | 0 m/s | 63 W/m² | - |
| 1778019521 | 10° C | 93% | 987 hPa | 1.78 mm | 0 m/s | 61 W/m² | - |
| 1778019218 | 10° C | 92% | 987.2 hPa | 3.05 mm | 0 m/s | 40 W/m² | - |
| 1778018915 | 10.56° C | 94% | 987 hPa | 3.05 mm | 0 m/s | 70 W/m² | - |
| 1778018612 | 10.56° C | 94% | 986.7 hPa | 3.05 mm | 0 m/s | 49 W/m² | - |
| 1778018310 | 10.56° C | 93% | 986.8 hPa | 3.05 mm | 0 m/s | 52 W/m² | - |
| 1778018008 | 10.56° C | 93% | 987.2 hPa | 3.56 mm | 0 m/s | 24 W/m² | - |
| 1778017705 | 10.56° C | 93% | 986.9 hPa | 3.05 mm | 0 m/s | 42 W/m² | - |
| 1778017403 | 10.56° C | 93% | 986.8 hPa | 1.27 mm | 0 m/s | 52 W/m² | - |
| 1778017099 | 10.56° C | 93% | 986.7 hPa | 1.78 mm | 0 m/s | 44 W/m² | - |
| 1778016797 | 10.56° C | 93% | 986.8 hPa | 3.05 mm | 0 m/s | 45 W/m² | - |
| 1778016493 | 11.11° C | 93% | 987 hPa | 3.05 mm | 0 m/s | 46 W/m² | - |
| 1778016190 | 11.11° C | 93% | 986.9 hPa | 1.78 mm | 0 m/s | 43 W/m² | - |
| 1778015886 | 11.11° C | 93% | 986.9 hPa | 1.27 mm | 0 m/s | 48 W/m² | - |
| 1778015584 | 11.11° C | 93% | 986.6 hPa | 3.05 mm | 0 m/s | 60 W/m² | - |
| 1778015280 | 11.11° C | 93% | 986.5 hPa | 3.05 mm | 0 m/s | 52 W/m² | - |
| 1778014978 | 11.11° C | 93% | 986.5 hPa | 3.05 mm | 0 m/s | 42 W/m² | - |
* Rain latest hour (hover to see other rain measurements)
** Current wind speed in m/s (hover to see current wind gust speed)